,,,PA_Meas_PMT16A,,PR_Meas_QMR101_102,,RH_Meas_QMH101,,SR_Meas_QMS101,,TA_Meas_QMH101,,GenWind,,GenWind,
date,time,status,PA,status,PR,status,RH,status,SR,status,TA,status,DirAvg,status,SpdAvg,
2009-03-05, 00:00:04,VALID,1005.01,VALID,0,VALID,93.8276,VALID,0.100563,VALID,23.9371,VALID,51,VALID,0.179297,
2009-03-05, 00:01:04,VALID,1004.99,VALID,0,VALID,93.7895,VALID,0.100563,VALID,23.9159,VALID,51,VALID,0,
2009-03-05, 00:02:04,VALID,1004.96,VALID,0,VALID,93.8581,VALID,0.100563,VALID,23.9353,VALID,51,VALID,0.14375,
2009-03-05, 00:03:04,VALID,1004.96,VALID,0,VALID,93.82,VALID,0,VALID,23.9353,VALID,51,VALID,0,
2009-03-05, 00:04:04,VALID,1004.95,VALID,0,VALID,93.7895,VALID,0.100563,VALID,23.9548,VALID,51,VALID,0.183984,
2009-03-05, 00:05:04,VALID,1004.94,VALID,0,VALID,93.8963,VALID,0.100563,VALID,23.9937,VALID,51,VALID,0.0632813,
2009-03-05, 00:06:04,VALID,1004.92,VALID,0,VALID,93.8963,VALID,0.100563,VALID,24.0539,VALID,51,VALID,0.223438,
2009-03-05, 00:07:04,VALID,1004.91,VALID,0,VALID,93.8505,VALID,0.100563,VALID,24.0734,VALID,51,VALID,0.100781,
2009-03-05, 00:08:04,VALID,1004.95,VALID,0,VALID,93.8276,VALID,0,VALID,24.0521,VALID,51,VALID,0.211719,
2009-03-05, 00:09:04,VALID,1004.88,VALID,0,VALID,93.8047,VALID,0,VALID,24.091,VALID,51,VALID,0.28125,
2009-03-05, 00:10:04,VALID,1004.87,VALID,0,VALID,93.6979,VALID,0.100563,VALID,24.091,VALID,51,VALID,0.480469,
2009-03-05, 00:11:04,VALID,1004.83,VALID,0,VALID,93.5835,VALID,0,VALID,24.0929,VALID,51,VALID,0.542188,
2009-03-05, 00:12:04,VALID,1004.82,VALID,0,VALID,93.5148,VALID,0,VALID,24.0521,VALID,51,VALID,0.174609,
2009-03-05, 00:13:04,VALID,1004.83,VALID,0,VALID,93.4919,VALID,0,VALID,24.0539,VALID,51,VALID,0.153906,
2009-03-05, 00:14:04,VALID,1004.79,VALID,0,VALID,93.4385,VALID,0.100563,VALID,24.0539,VALID,51,VALID,0,
2009-03-05, 00:15:04,VALID,1004.77,VALID,0,VALID,93.5453,VALID,0.100563,VALID,24.0539,VALID,52,VALID,0.187109,
2009-03-05, 00:16:04,VALID,1004.78,VALID,0,VALID,93.5682,VALID,0.100563,VALID,24.0521,VALID,52,VALID,0.112891,
2009-03-05, 00:17:04,VALID,1004.79,VALID,0,VALID,93.553,VALID,0.100563,VALID,24.0734,VALID,67,VALID,0.502344,
2009-03-05, 00:18:04,VALID,1004.76,VALID,0,VALID,93.5606,VALID,0,VALID,24.0521,VALID,67,VALID,0.344531,
2009-03-05, 00:19:04,VALID,1004.76,VALID,0,VALID,93.6064,VALID,0.100563,VALID,24.091,VALID,68,VALID,0.503906,
2009-03-05, 00:20:04,VALID,1004.78,VALID,0,VALID,93.6216,VALID,0.100563,VALID,24.1105,VALID,69,VALID,0.357812,
2009-03-05, 00:21:04,VALID,1004.74,VALID,0,VALID,93.6903,VALID,0.100563,VALID,24.1513,VALID,81,VALID,0.59375,
2009-03-05, 00:22:04,VALID,1004.74,VALID,0,VALID,93.6903,VALID,0.100563,VALID,24.1689,VALID,82,VALID,0.588672,
2009-03-05, 00:23:04,VALID,1004.72,VALID,0,VALID,93.6064,VALID,0.100563,VALID,24.2291,VALID,71,VALID,0.0914062,
2009-03-05, 00:24:04,VALID,1004.7,VALID,0,VALID,93.5148,VALID,0.100563,VALID,24.1884,VALID,71,VALID,0,
2009-03-05, 00:25:04,VALID,1004.69,VALID,0,VALID,93.408,VALID,0,VALID,24.1689,VALID,71,VALID,0.158594,
2009-03-05, 00:26:04,VALID,1004.69,VALID,0,VALID,93.3928,VALID,0,VALID,24.192,VALID,71,VALID,0,
2009-03-05, 00:27:04,VALID,1004.66,VALID,0,VALID,93.3165,VALID,0,VALID,24.192,VALID,71,VALID,0,
2009-03-05, 00:28:04,VALID,1004.67,VALID,0,VALID,93.2402,VALID,0,VALID,24.1318,VALID,71,VALID,0,
2009-03-05, 00:29:04,VALID,1004.66,VALID,0,VALID,93.1639,VALID,0,VALID,24.1336,VALID,71,VALID,0,
2009-03-05, 00:30:04,VALID,1004.65,VALID,0,VALID,93.1105,VALID,0,VALID,24.0734,VALID,71,VALID,0,
2009-03-05, 00:31:04,VALID,1004.6,VALID,0,VALID,93.1715,VALID,0,VALID,24.0539,VALID,71,VALID,0.04375,
2009-03-05, 00:32:04,VALID,1004.6,VALID,0,VALID,93.3012,VALID,0,VALID,24.0734,VALID,71,VALID,0.180469,
2009-03-05, 00:33:04,VALID,1004.59,VALID,0,VALID,93.3088,VALID,0,VALID,24.0734,VALID,71,VALID,0,
2009-03-05, 00:34:04,VALID,1004.6,VALID,0,VALID,93.2783,VALID,0,VALID,24.0947,VALID,71,VALID,0,
2009-03-05, 00:35:04,VALID,1004.51,VALID,0,VALID,93.3012,VALID,0,VALID,24.0734,VALID,71,VALID,0,
2009-03-05, 00:36:04,VALID,1004.51,VALID,0,VALID,93.3088,VALID,0,VALID,24.0734,VALID,71,VALID,0,
2009-03-05, 00:37:04,VALID,1004.49,VALID,0,VALID,93.3241,VALID,0,VALID,24.0734,VALID,71,VALID,0,
2009-03-05, 00:38:04,VALID,1004.48,VALID,0,VALID,93.2859,VALID,0,VALID,24.0734,VALID,71,VALID,0,
2009-03-05, 00:39:04,VALID,1004.45,VALID,0,VALID,93.2402,VALID,0,VALID,24.0539,VALID,71,VALID,0,
2009-03-05, 00:40:04,VALID,1004.43,VALID,0,VALID,93.2631,VALID,0,VALID,24.0734,VALID,71,VALID,0,
2009-03-05, 00:41:04,VALID,1004.4,VALID,0,VALID,93.2631,VALID,0,VALID,24.0539,VALID,71,VALID,0,
2009-03-05, 00:42:04,VALID,1004.37,VALID,0,VALID,93.2325,VALID,0,VALID,24.0752,VALID,71,VALID,0,
2009-03-05, 00:43:04,VALID,1004.33,VALID,0,VALID,93.2631,VALID,0,VALID,24.0929,VALID,71,VALID,0,
2009-03-05, 00:44:04,VALID,1004.31,VALID,0,VALID,93.2554,VALID,0,VALID,24.0947,VALID,71,VALID,0,
2009-03-05, 00:45:04,VALID,1004.27,VALID,0,VALID,93.2249,VALID,0,VALID,24.0947,VALID,71,VALID,0,
2009-03-05, 00:46:04,VALID,1004.26,VALID,0,VALID,93.2478,VALID,0,VALID,24.0734,VALID,71,VALID,0,
2009-03-05, 00:47:04,VALID,1004.23,VALID,0,VALID,93.2249,VALID,0,VALID,24.0947,VALID,71,VALID,0,
2009-03-05, 00:48:04,VALID,1004.2,VALID,0,VALID,93.2173,VALID,0,VALID,24.0734,VALID,71,VALID,0,
2009-03-05, 00:49:04,VALID,1004.21,VALID,0,VALID,93.2325,VALID,0,VALID,24.0539,VALID,71,VALID,0,
2009-03-05, 00:50:04,VALID,1004.2,VALID,0,VALID,93.2173,VALID,0,VALID,24.0557,VALID,71,VALID,0,
2009-03-05, 00:51:04,VALID,1004.18,VALID,0,VALID,93.2325,VALID,0,VALID,24.0557,VALID,71,VALID,0,
2009-03-05, 00:52:04,VALID,1004.17,VALID,0,VALID,93.2783,VALID,0,VALID,24.0345,VALID,71,VALID,0,
2009-03-05, 00:53:04,VALID,1004.19,VALID,0,VALID,93.2707,VALID,0,VALID,23.9955,VALID,71,VALID,0,
2009-03-05, 00:54:04,VALID,1004.16,VALID,0,VALID,93.2707,VALID,0,VALID,23.9955,VALID,71,VALID,0,
2009-03-05, 00:55:05,VALID,1004.15,VALID,0,VALID,93.3012,VALID,0,VALID,23.9779,VALID,71,VALID,0,
2009-03-05, 00:56:05,VALID,1004.1,VALID,0,VALID,93.3546,VALID,0,VALID,23.9955,VALID,71,VALID,0,
2009-03-05, 00:57:05,VALID,1004.11,VALID,0,VALID,93.3928,VALID,0.100563,VALID,23.9955,VALID,71,VALID,0,
2009-03-05, 00:58:05,VALID,1004.09,VALID,0,VALID,93.4233,VALID,0.100563,VALID,23.9742,VALID,71,VALID,0,
2009-03-05, 00:59:05,VALID,1004.1,VALID,0,VALID,93.4614,VALID,0,VALID,23.9548,VALID,71,VALID,0,
2009-03-05, 01:00:05,VALID,1004.09,VALID,0,VALID,93.4614,VALID,0,VALID,23.9548,VALID,71,VALID,0,
2009-03-05, 01:01:05,VALID,1004.08,VALID,0,VALID,93.4385,VALID,0,VALID,23.9566,VALID,71,VALID,0,
2009-03-05, 01:02:05,VALID,1004.06,VALID,0,VALID,93.4309,VALID,0.100563,VALID,23.9159,VALID,71,VALID,0,
2009-03-05, 01:03:05,VALID,1004.04,VALID,0,VALID,93.4843,VALID,0.100563,VALID,23.8751,VALID,71,VALID,0,
2009-03-05, 01:04:05,VALID,1004.02,VALID,0,VALID,93.469,VALID,0.100563,VALID,23.8769,VALID,71,VALID,0,
2009-03-05, 01:05:05,VALID,1004.03,VALID,0,VALID,93.4309,VALID,0,VALID,23.838,VALID,71,VALID,0,
2009-03-05, 01:06:05,VALID,1004.01,VALID,0,VALID,93.4004,VALID,0,VALID,23.7991,VALID,71,VALID,0,
2009-03-05, 01:07:05,VALID,1004,VALID,0,VALID,93.3775,VALID,0.100563,VALID,23.7796,VALID,71,VALID,0,
2009-03-05, 01:08:05,VALID,1003.99,VALID,0,VALID,93.408,VALID,0,VALID,23.7601,VALID,71,VALID,0,
2009-03-05, 01:09:05,VALID,1003.99,VALID,0,VALID,93.4309,VALID,0,VALID,23.7425,VALID,71,VALID,0,
2009-03-05, 01:10:05,VALID,1004,VALID,0,VALID,93.4385,VALID,0,VALID,23.7212,VALID,71,VALID,0,
2009-03-05, 01:11:05,VALID,1004.01,VALID,0,VALID,93.4538,VALID,0,VALID,23.6823,VALID,71,VALID,0,
2009-03-05, 01:12:05,VALID,1003.99,VALID,0,VALID,93.5377,VALID,0,VALID,23.6628,VALID,71,VALID,0,
2009-03-05, 01:13:05,VALID,1003.98,VALID,0,VALID,93.5682,VALID,0,VALID,23.6841,VALID,71,VALID,0,
2009-03-05, 01:14:05,VALID,1004,VALID,0,VALID,93.5987,VALID,0.100563,VALID,23.6628,VALID,71,VALID,0,
2009-03-05, 01:15:05,VALID,1003.96,VALID,0,VALID,93.6598,VALID,0.100563,VALID,23.6823,VALID,71,VALID,0,
2009-03-05, 01:16:05,VALID,1003.96,VALID,0,VALID,93.7055,VALID,0.100563,VALID,23.6823,VALID,71,VALID,0,
2009-03-05, 01:17:05,VALID,1003.95,VALID,0,VALID,93.8581,VALID,0,VALID,23.7407,VALID,77,VALID,0.244531,
2009-03-05, 01:18:05,VALID,1003.96,VALID,0,VALID,93.9878,VALID,0.100563,VALID,23.838,VALID,77,VALID,0.394922,
2009-03-05, 01:19:05,VALID,1003.94,VALID,0,VALID,94.0412,VALID,0,VALID,23.8982,VALID,77,VALID,0.334375,
2009-03-05, 01:20:05,VALID,1003.94,VALID,0,VALID,94.0717,VALID,0,VALID,23.9353,VALID,73,VALID,0.507813,
2009-03-05, 01:21:05,VALID,1003.95,VALID,0,VALID,94.0946,VALID,0.100563,VALID,23.9724,VALID,73,VALID,0.534375,
2009-03-05, 01:22:05,VALID,1003.92,VALID,0,VALID,94.0412,VALID,0.100563,VALID,24.0326,VALID,73,VALID,0.235938,
2009-03-05, 01:23:05,VALID,1003.9,VALID,0,VALID,93.9802,VALID,0,VALID,24.0539,VALID,42,VALID,0.382813,
2009-03-05, 01:24:05,VALID,1003.93,VALID,0,VALID,93.942,VALID,0,VALID,24.0326,VALID,33,VALID,0.414453,
2009-03-05, 01:25:05,VALID,1003.92,VALID,0,VALID,93.8657,VALID,0,VALID,24.0539,VALID,33,VALID,0.0234375,
2009-03-05, 01:26:05,VALID,1003.93,VALID,0,VALID,93.8657,VALID,0,VALID,24.0539,VALID,33,VALID,0.0277344,
2009-03-05, 01:27:05,VALID,1003.92,VALID,0,VALID,93.9115,VALID,0,VALID,24.0734,VALID,77,VALID,0.163281,
2009-03-05, 01:28:05,VALID,1003.91,VALID,0,VALID,93.8734,VALID,0,VALID,24.0929,VALID,77,VALID,0.265625,
2009-03-05, 01:29:05,VALID,1003.93,VALID,0,VALID,93.8734,VALID,0.100563,VALID,24.1105,VALID,77,VALID,0.251953,
2009-03-05, 01:30:05,VALID,1003.95,VALID,0,VALID,93.7818,VALID,0.100563,VALID,24.1123,VALID,77,VALID,0.0808594,
2009-03-05, 01:31:05,VALID,1003.93,VALID,0,VALID,93.7589,VALID,0.100563,VALID,24.091,VALID,77,VALID,0,
2009-03-05, 01:32:05,VALID,1003.96,VALID,0,VALID,93.7666,VALID,0,VALID,24.1105,VALID,77,VALID,0,
2009-03-05, 01:33:05,VALID,1003.95,VALID,0,VALID,93.7284,VALID,0,VALID,24.1105,VALID,77,VALID,0.170703,
2009-03-05, 01:34:05,VALID,1003.93,VALID,0,VALID,93.6979,VALID,0.100563,VALID,24.1318,VALID,77,VALID,0.212109,
2009-03-05, 01:35:05,VALID,1003.93,VALID,0,VALID,93.6292,VALID,0,VALID,24.091,VALID,77,VALID,0.220313,
2009-03-05, 01:36:05,VALID,1003.93,VALID,0,VALID,93.6369,VALID,0,VALID,24.091,VALID,77,VALID,0.226172,
2009-03-05, 01:37:05,VALID,1003.93,VALID,0,VALID,93.6064,VALID,0,VALID,24.1105,VALID,77,VALID,0.268359,
2009-03-05, 01:38:05,VALID,1003.92,VALID,0,VALID,93.5911,VALID,0,VALID,24.091,VALID,77,VALID,0.305469,
2009-03-05, 01:39:05,VALID,1003.92,VALID,0,VALID,93.5835,VALID,0.100563,VALID,24.091,VALID,77,VALID,0.132813,
2009-03-05, 01:40:05,VALID,1003.92,VALID,0,VALID,93.5758,VALID,0.100563,VALID,24.091,VALID,77,VALID,0.320703,
2009-03-05, 01:41:05,VALID,1003.92,VALID,0,VALID,93.6064,VALID,0.100563,VALID,24.1123,VALID,77,VALID,0.401563,
2009-03-05, 01:42:05,VALID,1003.92,VALID,0,VALID,93.6445,VALID,0.100563,VALID,24.1105,VALID,73,VALID,0.210156,
2009-03-05, 01:43:05,VALID,1003.88,VALID,0,VALID,93.6598,VALID,0,VALID,24.1318,VALID,71,VALID,0.357812,
2009-03-05, 01:44:05,VALID,1003.87,VALID,0,VALID,93.6369,VALID,0,VALID,24.1123,VALID,71,VALID,0.142578,
2009-03-05, 01:45:05,VALID,1003.87,VALID,0,VALID,93.6216,VALID,0.100563,VALID,24.091,VALID,56,VALID,0.349219,
2009-03-05, 01:46:05,VALID,1003.83,VALID,0,VALID,93.6292,VALID,0,VALID,24.1105,VALID,50,VALID,0.511328,
2009-03-05, 01:47:05,VALID,1003.82,VALID,0,VALID,93.6369,VALID,0.100563,VALID,24.1105,VALID,50,VALID,0.373437,
2009-03-05, 01:48:05,VALID,1003.81,VALID,0,VALID,93.6216,VALID,0.100563,VALID,24.1105,VALID,50,VALID,0.319922,
2009-03-05, 01:49:05,VALID,1003.76,VALID,0,VALID,93.6369,VALID,0.100563,VALID,24.1105,VALID,43,VALID,0.537891,
2009-03-05, 01:50:05,VALID,1003.72,VALID,0,VALID,93.7513,VALID,0,VALID,24.1707,VALID,27,VALID,0.832812,
2009-03-05, 01:51:05,VALID,1003.7,VALID,0,VALID,93.7742,VALID,0,VALID,24.2273,VALID,28,VALID,0.584375,
2009-03-05, 01:52:05,VALID,1003.68,VALID,0,VALID,93.6826,VALID,0.100563,VALID,24.2857,VALID,28,VALID,0.585156,
2009-03-05, 01:53:05,VALID,1003.65,VALID,0,VALID,93.6903,VALID,0.100563,VALID,24.3459,VALID,35,VALID,0.880469,
2009-03-05, 01:54:05,VALID,1003.61,VALID,0,VALID,93.6292,VALID,0.100563,VALID,24.4414,VALID,35,VALID,1.16094,
2009-03-05, 01:55:05,VALID,1003.61,VALID,0,VALID,93.4233,VALID,0,VALID,24.5582,VALID,17,VALID,0.876172,
2009-03-05, 01:56:05,VALID,1003.62,VALID,0,VALID,93.0723,VALID,0,VALID,24.6788,VALID,37,VALID,0.675,
2009-03-05, 01:57:05,VALID,1003.59,VALID,0,VALID,92.6985,VALID,0,VALID,24.7548,VALID,17,VALID,0.296875,
2009-03-05, 01:58:05,VALID,1003.58,VALID,0,VALID,92.3934,VALID,0,VALID,24.7937,VALID,17,VALID,0.198828,
2009-03-05, 01:59:05,VALID,1003.58,VALID,0,VALID,92.1187,VALID,0,VALID,24.8132,VALID,58,VALID,0.221875,
2009-03-05, 02:00:05,VALID,1003.55,VALID,0,VALID,91.8441,VALID,0,VALID,24.8327,VALID,58,VALID,0.188281,
2009-03-05, 02:01:05,VALID,1003.55,VALID,0,VALID,91.6229,VALID,0,VALID,24.8327,VALID,30,VALID,0.341406,
2009-03-05, 02:02:05,VALID,1003.52,VALID,0,VALID,91.4169,VALID,0,VALID,24.8327,VALID,31,VALID,0.64375,
2009-03-05, 02:03:05,VALID,1003.51,VALID,0,VALID,91.2719,VALID,0,VALID,24.8327,VALID,31,VALID,0.903516,
2009-03-05, 02:04:05,VALID,1003.48,VALID,0,VALID,91.0888,VALID,0,VALID,24.8716,VALID,24,VALID,1.06992,
2009-03-05, 02:05:05,VALID,1003.46,VALID,0,VALID,90.7989,VALID,0,VALID,24.9125,VALID,32,VALID,0.798437,
2009-03-05, 02:06:05,VALID,1003.44,VALID,0,VALID,90.6387,VALID,0,VALID,24.8911,VALID,38,VALID,0.832422,
2009-03-05, 02:07:05,VALID,1003.44,VALID,0,VALID,90.5396,VALID,0,VALID,24.9106,VALID,31,VALID,0.766406,
2009-03-05, 02:08:05,VALID,1003.43,VALID,0,VALID,90.4327,VALID,0,VALID,24.9514,VALID,20,VALID,1.0457,
2009-03-05, 02:09:05,VALID,1003.45,VALID,0,VALID,90.2344,VALID,0,VALID,24.969,VALID,28,VALID,0.579687,
2009-03-05, 02:10:05,VALID,1003.45,VALID,0,VALID,89.9826,VALID,0,VALID,25.0274,VALID,19,VALID,0.56875,
2009-03-05, 02:11:05,VALID,1003.42,VALID,0,VALID,89.8301,VALID,0,VALID,25.0255,VALID,25,VALID,0.515234,
2009-03-05, 02:12:05,VALID,1003.44,VALID,0,VALID,89.7843,VALID,0,VALID,25.045,VALID,30,VALID,0.996094,
2009-03-05, 02:13:05,VALID,1003.44,VALID,0,VALID,89.5783,VALID,0,VALID,25.1442,VALID,25,VALID,0.814453,
2009-03-05, 02:14:05,VALID,1003.42,VALID,0,VALID,89.2503,VALID,0,VALID,25.1637,VALID,23,VALID,0.585156,
2009-03-05, 02:15:05,VALID,1003.42,VALID,0,VALID,89.2045,VALID,0,VALID,25.1229,VALID,21,VALID,0.864062,
2009-03-05, 02:16:05,VALID,1003.42,VALID,0,VALID,89.2274,VALID,0,VALID,25.1248,VALID,22,VALID,0.700391,
2009-03-05, 02:17:05,VALID,1003.41,VALID,0,VALID,89.2045,VALID,0,VALID,25.1034,VALID,23,VALID,0.761328,
2009-03-05, 02:18:05,VALID,1003.39,VALID,0,VALID,89.1282,VALID,0,VALID,25.0839,VALID,36,VALID,0.665234,
2009-03-05, 02:19:05,VALID,1003.39,VALID,0,VALID,89.174,VALID,0,VALID,25.0274,VALID,36,VALID,0.214453,
2009-03-05, 02:20:05,VALID,1003.37,VALID,0,VALID,89.296,VALID,0,VALID,24.9885,VALID,30,VALID,0.826563,
2009-03-05, 02:21:05,VALID,1003.35,VALID,0,VALID,89.3571,VALID,0.100563,VALID,24.93,VALID,20,VALID,0.398438,
2009-03-05, 02:22:05,VALID,1003.33,VALID,0,VALID,89.4791,VALID,0,VALID,24.8308,VALID,23,VALID,0.270312,
2009-03-05, 02:23:05,VALID,1003.32,VALID,0,VALID,89.6622,VALID,0,VALID,24.7919,VALID,32,VALID,0.210156,
2009-03-05, 02:24:05,VALID,1003.31,VALID,0,VALID,89.9369,VALID,0,VALID,24.7743,VALID,37,VALID,0.682813,
2009-03-05, 02:25:05,VALID,1003.28,VALID,0,VALID,90.242,VALID,0,VALID,24.7548,VALID,34,VALID,0.298828,
2009-03-05, 02:26:05,VALID,1003.27,VALID,0,VALID,90.3488,VALID,0,VALID,24.7335,VALID,35,VALID,0.50625,
2009-03-05, 02:27:05,VALID,1003.27,VALID,0,VALID,90.3031,VALID,0,VALID,24.7548,VALID,57,VALID,0.119141,
2009-03-05, 02:28:05,VALID,1003.26,VALID,0,VALID,90.3336,VALID,0,VALID,24.6945,VALID,61,VALID,0.418359,
2009-03-05, 02:29:05,VALID,1003.26,VALID,0,VALID,90.4022,VALID,0,VALID,24.6964,VALID,62,VALID,0.411328,
2009-03-05, 02:30:05,VALID,1003.26,VALID,0,VALID,90.4633,VALID,0,VALID,24.6361,VALID,60,VALID,0.336328,
2009-03-05, 02:31:05,VALID,1003.29,VALID,0,VALID,90.5472,VALID,0,VALID,24.6361,VALID,60,VALID,0.132813,
2009-03-05, 02:32:05,VALID,1003.27,VALID,0,VALID,90.6769,VALID,0,VALID,24.6166,VALID,67,VALID,0.226563,
2009-03-05, 02:33:05,VALID,1003.27,VALID,0,VALID,90.7455,VALID,0,VALID,24.6185,VALID,65,VALID,0.180469,
2009-03-05, 02:34:05,VALID,1003.26,VALID,0,VALID,90.7379,VALID,0.100563,VALID,24.5796,VALID,64,VALID,0.305078,
2009-03-05, 02:35:05,VALID,1003.25,VALID,0,VALID,90.8752,VALID,0,VALID,24.5796,VALID,57,VALID,0.328906,
2009-03-05, 02:36:05,VALID,1003.2,VALID,0,VALID,90.9897,VALID,0,VALID,24.5582,VALID,56,VALID,0.197656,
2009-03-05, 02:37:05,VALID,1003.18,VALID,0,VALID,91.0354,VALID,0,VALID,24.5582,VALID,51,VALID,0.271875,
2009-03-05, 02:38:05,VALID,1003.18,VALID,0,VALID,91.0736,VALID,0,VALID,24.5796,VALID,50,VALID,0.540625,
2009-03-05, 02:39:05,VALID,1003.13,VALID,0,VALID,91.0354,VALID,0,VALID,24.5814,VALID,13,VALID,0.325391,
2009-03-05, 02:40:05,VALID,1003.1,VALID,0,VALID,91.1193,VALID,0,VALID,24.5406,VALID,18,VALID,0.383594,
2009-03-05, 02:41:05,VALID,1003.08,VALID,0,VALID,91.1728,VALID,0,VALID,24.5193,VALID,18,VALID,0.552734,
2009-03-05, 02:42:05,VALID,1003.1,VALID,0,VALID,91.2948,VALID,0,VALID,24.5193,VALID,20,VALID,0.337891,
2009-03-05, 02:43:05,VALID,1003.09,VALID,0,VALID,91.5084,VALID,0,VALID,24.5406,VALID,21,VALID,0.739453,
2009-03-05, 02:44:05,VALID,1003.08,VALID,0,VALID,91.5847,VALID,0,VALID,24.599,VALID,80,VALID,1.10273,
2009-03-05, 02:45:05,VALID,1003.07,VALID,0,VALID,91.4398,VALID,0,VALID,24.6556,VALID,69,VALID,0.409766,
2009-03-05, 02:46:05,VALID,1003.04,VALID,0,VALID,91.2948,VALID,0,VALID,24.6769,VALID,46,VALID,0.283594,
2009-03-05, 02:47:05,VALID,1003.06,VALID,0,VALID,91.1956,VALID,0,VALID,24.675,VALID,61,VALID,0.573438,
2009-03-05, 02:48:05,VALID,1003.01,VALID,0,VALID,91.0965,VALID,0,VALID,24.6964,VALID,55,VALID,0.316016,
2009-03-05, 02:49:05,VALID,1003.02,VALID,0,VALID,91.1117,VALID,0,VALID,24.6964,VALID,35,VALID,0.714844,
2009-03-05, 02:50:05,VALID,1003.01,VALID,0,VALID,91.1422,VALID,0,VALID,24.7353,VALID,52,VALID,0.184766,
2009-03-05, 02:51:05,VALID,1002.99,VALID,0,VALID,91.1117,VALID,0,VALID,24.7548,VALID,29,VALID,0.530859,
2009-03-05, 02:52:05,VALID,1003,VALID,0,VALID,91.0812,VALID,0,VALID,24.7724,VALID,56,VALID,0.471484,
2009-03-05, 02:53:05,VALID,1003.04,VALID,0,VALID,90.9363,VALID,0,VALID,24.8327,VALID,44,VALID,0.302344,
2009-03-05, 02:54:05,VALID,1003.02,VALID,0,VALID,90.8371,VALID,0,VALID,24.8522,VALID,30,VALID,0.579297,
2009-03-05, 02:55:05,VALID,1003,VALID,0,VALID,90.6692,VALID,0,VALID,24.8697,VALID,44,VALID,0.126172,
2009-03-05, 02:56:05,VALID,1003.01,VALID,0,VALID,90.6006,VALID,0,VALID,24.9087,VALID,12,VALID,0.687891,
2009-03-05, 02:57:05,VALID,1003.01,VALID,0,VALID,90.4099,VALID,0,VALID,24.9282,VALID,1,VALID,0.351172,
2009-03-05, 02:58:05,VALID,1003.03,VALID,0,VALID,90.2802,VALID,0.100563,VALID,24.9495,VALID,25,VALID,0.347656,
2009-03-05, 02:59:05,VALID,1003.02,VALID,0,VALID,90.1657,VALID,0,VALID,24.9282,VALID,25,VALID,0.15625,
2009-03-05, 03:00:05,VALID,1003.02,VALID,0,VALID,90.1047,VALID,0,VALID,24.9087,VALID,25,VALID,0,
2009-03-05, 03:01:05,VALID,1003,VALID,0,VALID,90.0589,VALID,0.100563,VALID,24.8892,VALID,36,VALID,0.737109,
2009-03-05, 03:02:05,VALID,1003.01,VALID,0,VALID,90.0894,VALID,0,VALID,24.8892,VALID,47,VALID,0.0691406,
2009-03-05, 03:03:05,VALID,1003.01,VALID,0,VALID,90.0894,VALID,0,VALID,24.8911,VALID,47,VALID,0.197266,
2009-03-05, 03:04:05,VALID,1003.02,VALID,0,VALID,90.0818,VALID,0,VALID,24.8911,VALID,87,VALID,0.305859,
2009-03-05, 03:05:05,VALID,1003.05,VALID,0,VALID,90.1505,VALID,0,VALID,24.8503,VALID,36,VALID,0.539453,
2009-03-05, 03:06:05,VALID,1003.04,VALID,0,VALID,90.0971,VALID,0,VALID,24.8716,VALID,36,VALID,0.499219,
2009-03-05, 03:07:05,VALID,1003.07,VALID,0,VALID,90.1047,VALID,0,VALID,24.8503,VALID,43,VALID,0.379297,
2009-03-05, 03:08:05,VALID,1003.02,VALID,0,VALID,90.0437,VALID,0,VALID,24.8522,VALID,56,VALID,0.128516,
2009-03-05, 03:09:05,VALID,1003.04,VALID,0,VALID,89.9826,VALID,0,VALID,24.8327,VALID,56,VALID,0.05625,
2009-03-05, 03:10:05,VALID,1003.04,VALID,0,VALID,90.1581,VALID,0,VALID,24.8132,VALID,32,VALID,0.875391,
2009-03-05, 03:11:05,VALID,1003.07,VALID,0,VALID,90.1734,VALID,0,VALID,24.8327,VALID,27,VALID,0.771875,
2009-03-05, 03:12:05,VALID,1003.05,VALID,0,VALID,90.1963,VALID,0,VALID,24.8113,VALID,28,VALID,0.319141,
2009-03-05, 03:13:05,VALID,1003.04,VALID,0,VALID,90.1123,VALID,0,VALID,24.8522,VALID,12,VALID,0.364062,
2009-03-05, 03:14:05,VALID,1003.04,VALID,0,VALID,90.0589,VALID,0,VALID,24.8522,VALID,49,VALID,0.332422,
2009-03-05, 03:15:05,VALID,1003.04,VALID,0,VALID,90.1657,VALID,0,VALID,24.8113,VALID,25,VALID,0.633203,
2009-03-05, 03:16:05,VALID,1003.02,VALID,0,VALID,90.1047,VALID,0,VALID,24.8522,VALID,29,VALID,0.0761719,
2009-03-05, 03:17:05,VALID,1002.99,VALID,0,VALID,90.2497,VALID,0,VALID,24.8522,VALID,36,VALID,0.93125,
2009-03-05, 03:18:05,VALID,1002.98,VALID,0,VALID,90.2039,VALID,0,VALID,24.9106,VALID,20,VALID,0.758984,
2009-03-05, 03:19:05,VALID,1003.01,VALID,0,VALID,89.9903,VALID,0,VALID,24.9087,VALID,26,VALID,0.374219,
2009-03-05, 03:20:05,VALID,1002.99,VALID,0,VALID,89.8911,VALID,0,VALID,24.93,VALID,27,VALID,0.335938,
2009-03-05, 03:21:05,VALID,1002.98,VALID,0,VALID,89.853,VALID,0,VALID,24.9106,VALID,18,VALID,0.513281,
2009-03-05, 03:22:05,VALID,1002.96,VALID,0,VALID,89.8606,VALID,0,VALID,24.8892,VALID,32,VALID,0.344531,
2009-03-05, 03:23:05,VALID,1002.97,VALID,0,VALID,89.9292,VALID,0,VALID,24.9106,VALID,38,VALID,0.935547,
2009-03-05, 03:24:05,VALID,1002.96,VALID,0,VALID,89.7767,VALID,0,VALID,24.9106,VALID,30,VALID,0.285937,
2009-03-05, 03:25:05,VALID,1002.96,VALID,0,VALID,89.914,VALID,0,VALID,24.9087,VALID,36,VALID,1.37148,
2009-03-05, 03:26:05,VALID,1002.96,VALID,0,VALID,89.7461,VALID,0,VALID,24.969,VALID,55,VALID,0.569531,
2009-03-05, 03:27:05,VALID,1002.93,VALID,0,VALID,89.647,VALID,0,VALID,24.9476,VALID,11,VALID,0.659375,
2009-03-05, 03:28:05,VALID,1002.95,VALID,0,VALID,89.5478,VALID,0,VALID,24.9885,VALID,47,VALID,0.470703,
2009-03-05, 03:29:05,VALID,1002.97,VALID,0,VALID,89.5325,VALID,0,VALID,24.9885,VALID,8,VALID,0.775391,
2009-03-05, 03:30:05,VALID,1002.97,VALID,0,VALID,89.4868,VALID,0,VALID,25.006,VALID,32,VALID,0.441016,
2009-03-05, 03:31:05,VALID,1003,VALID,0,VALID,89.4181,VALID,0,VALID,25.0663,VALID,68,VALID,0.582812,
2009-03-05, 03:32:05,VALID,1003.03,VALID,0,VALID,89.1969,VALID,0,VALID,25.0663,VALID,91,VALID,0.0425781,
2009-03-05, 03:33:04,VALID,1003.07,VALID,0,VALID,89.1892,VALID,0,VALID,25.0663,VALID,89,VALID,0.595312,
2009-03-05, 03:34:04,VALID,1003.05,VALID,0,VALID,89.1816,VALID,0,VALID,25.0469,VALID,72,VALID,0.348437,
2009-03-05, 03:35:04,VALID,1003.08,VALID,0,VALID,89.174,VALID,0,VALID,25.006,VALID,72,VALID,0.321484,
2009-03-05, 03:36:04,VALID,1003.07,VALID,0,VALID,89.2121,VALID,0,VALID,25.0079,VALID,60,VALID,0.690234,
2009-03-05, 03:37:04,VALID,1003.11,VALID,0,VALID,89.1892,VALID,0.100563,VALID,24.9885,VALID,67,VALID,0.502734,
2009-03-05, 03:38:04,VALID,1003.09,VALID,0,VALID,89.1892,VALID,0,VALID,24.93,VALID,67,VALID,0.386719,
2009-03-05, 03:39:04,VALID,1003.09,VALID,0,VALID,89.2808,VALID,0,VALID,24.8911,VALID,65,VALID,0.444531,
2009-03-05, 03:40:04,VALID,1003.13,VALID,0,VALID,89.647,VALID,0.100563,VALID,24.8522,VALID,9,VALID,0.622656,
2009-03-05, 03:41:04,VALID,1003.14,VALID,0,VALID,89.8224,VALID,0,VALID,24.8308,VALID,33,VALID,0.753906,
2009-03-05, 03:42:04,VALID,1003.15,VALID,0,VALID,89.6546,VALID,0,VALID,24.8327,VALID,42,VALID,0.324609,
2009-03-05, 03:43:04,VALID,1003.13,VALID,0,VALID,89.8301,VALID,0,VALID,24.8308,VALID,33,VALID,0.379297,
2009-03-05, 03:44:04,VALID,1003.16,VALID,0,VALID,89.7919,VALID,0,VALID,24.8522,VALID,33,VALID,0.34375,
2009-03-05, 03:45:04,VALID,1003.15,VALID,0,VALID,89.7233,VALID,0,VALID,24.8113,VALID,33,VALID,0.414844,
2009-03-05, 03:46:04,VALID,1003.14,VALID,0,VALID,89.8758,VALID,0,VALID,24.8327,VALID,66,VALID,0.539063,